Location: Cuiry
(49.3858°N, 3.7708°E)
Time: 09:35:35
(UTC+00:00)

Cosmos 1934 Rocket - Pass Details

Date: 12 January 2026
Orbit: 938 x 998 km, 83.0° (Epoch: 18 February)

Event Time Altitude Azimuth Distance (km) Brightness Sun altitude
Rises 18:02:47 0° 356° (N) 3,621 6.9 -17.7°
Reaches altitude 10° 18:05:33 10° 5° (N) 2,678 6.1 -18.1°
Maximum altitude 18:11:02 33° 69° (ENE) 1,542 4.5 -19.0°
Enters shadow 18:11:48 32° 84° (E) 1,574 4.5 -19.1°
